Date String (YYYY-MM-DD hh:mm:ss) UTC,Instrument flags,Ambient pressure (hPa),Sample flow (lpm),Bypass flow (lpm),Sample temperature (°C),Ambient temperature (°C),ASC tube jacket temperature (°C),LED temperature (°C),Box temperature (°C),Sample RH (%),Span deviation,Mass concentration (μg/m³),Mass concentration (μg/m³),Mass concentration (μg/m³)
DateTimeUTC,F1_M11,P_M11,Q1_M11,Q2_M11,T1_M11,T2_M11,T3_M11,T4_M11,T5_M11,U1_M11,ZSPAN_M11,X0_M11,X2_M11,X1_M11
2022-03-25 02:00:00,,0825.5,5.00,0.00,29.0,28.1,00.0,38.0,30.7,08.7,0000.0,0007.90,0003.33,0001.41
2022-03-25 02:01:00,,0825.4,4.99,0.00,29.0,28.1,00.0,38.0,30.7,08.7,0000.0,0008.05,0003.37,0001.42
2022-03-25 02:02:00,,0825.5,4.99,0.00,29.0,28.1,00.0,38.0,30.7,08.6,0000.0,0008.01,0003.34,0001.42
2022-03-25 02:03:00,,0825.5,5.01,0.00,29.0,28.1,00.0,38.0,30.7,08.7,0000.0,0007.88,0003.29,0001.41
2022-03-25 02:04:00,,0825.5,5.00,0.00,29.0,28.1,00.0,38.0,30.7,08.8,0000.0,0007.84,0003.32,0001.41
2022-03-25 02:05:00,,0825.5,4.99,0.00,29.0,28.1,00.0,38.0,30.7,08.8,0000.0,0007.81,0003.34,0001.41
2022-03-25 02:06:00,,0825.5,5.02,0.00,29.0,28.1,00.0,38.0,30.7,08.7,0000.0,0007.91,0003.42,0001.43
2022-03-25 02:07:00,,0825.5,4.99,0.00,29.0,28.1,00.0,38.0,30.7,08.7,0000.0,0008.02,0003.46,0001.44
2022-03-25 02:08:00,,0825.5,5.01,0.00,29.0,28.1,00.0,38.0,30.6,08.8,0000.0,0008.16,0003.49,0001.44
2022-03-25 02:09:00,,0825.5,4.99,0.00,29.0,28.1,00.0,38.0,30.7,08.7,0000.0,0008.15,0003.46,0001.43
2022-03-25 02:10:00,,0825.5,5.02,0.00,29.0,28.1,00.0,38.0,30.7,08.7,0000.0,0008.15,0003.46,0001.44
2022-03-25 02:11:00,,0825.5,4.99,0.00,29.0,28.1,00.0,38.0,30.7,08.7,0000.0,0008.06,0003.45,0001.45
2022-03-25 02:12:00,,0825.5,5.00,0.00,29.0,28.1,00.0,38.0,30.7,08.8,0000.0,0007.98,0003.44,0001.44
2022-03-25 02:13:00,,0825.5,5.01,0.00,29.0,28.1,00.0,38.0,30.7,08.8,0000.0,0007.97,0003.45,0001.43
2022-03-25 02:14:00,,0825.5,4.99,0.00,29.0,28.1,00.0,38.0,30.7,08.9,0000.0,0007.97,0003.46,0001.43
2022-03-25 02:15:00,,0825.5,5.00,0.00,29.0,28.1,00.0,38.0,30.7,08.8,0000.0,0008.01,0003.46,0001.43
2022-03-25 02:16:00,,0825.5,5.01,0.00,29.0,28.1,00.0,38.0,30.7,08.8,0000.0,0008.26,0003.51,0001.44
2022-03-25 02:17:00,,0825.5,4.99,0.00,29.0,28.1,00.0,38.0,30.7,08.8,0000.0,0008.19,0003.46,0001.43
2022-03-25 02:18:00,,0825.5,5.01,0.00,29.0,28.1,00.0,38.0,30.7,08.9,0000.0,0008.02,0003.38,0001.44
2022-03-25 02:19:00,,0825.5,4.99,0.00,29.0,28.0,00.0,38.0,30.6,08.9,0000.0,0007.88,0003.37,0001.44
2022-03-25 02:20:00,,0825.6,4.99,0.00,29.0,28.0,00.0,38.0,30.6,08.9,0000.0,0007.85,0003.38,0001.45
2022-03-25 02:21:00,,0825.6,5.02,0.00,28.9,28.0,00.0,38.0,30.6,08.9,0000.0,0008.08,0003.45,0001.45
2022-03-25 02:22:00,,0825.6,4.99,0.00,28.9,28.0,00.0,38.0,30.7,08.9,0000.0,0008.28,0003.49,0001.46
2022-03-25 02:23:00,,0825.6,4.99,0.00,28.9,28.0,00.0,38.0,30.7,09.0,0000.0,0008.27,0003.48,0001.48
2022-03-25 02:24:00,,0825.6,5.01,0.00,28.9,28.0,00.0,38.0,30.7,09.0,0000.0,0008.37,0003.52,0001.49
2022-03-25 02:25:00,,0825.6,5.00,0.00,28.9,28.1,00.0,38.0,30.7,08.9,0000.0,0008.46,0003.54,0001.50
2022-03-25 02:26:00,,0825.6,4.99,0.00,28.9,28.1,00.0,38.0,30.7,09.0,0000.0,0008.63,0003.62,0001.52
2022-03-25 02:27:00,,0825.7,5.00,0.00,28.9,28.1,00.0,38.0,30.6,09.0,0000.0,0008.67,0003.64,0001.52
2022-03-25 02:28:00,,0825.7,5.03,0.00,29.0,28.1,00.0,38.0,30.7,09.0,0000.0,0008.68,0003.62,0001.51
2022-03-25 02:29:00,,0825.7,5.00,0.00,28.9,28.1,00.0,38.0,30.7,09.0,0000.0,0009.02,0003.65,0001.50
2022-03-25 02:30:00,,0825.7,4.98,0.00,28.9,28.1,00.0,38.0,30.6,09.0,0000.0,0009.23,0003.65,0001.49
2022-03-25 02:31:00,,0825.7,5.01,0.00,29.0,28.1,00.0,38.0,30.7,09.0,0000.0,0009.13,0003.62,0001.49
2022-03-25 02:32:00,,0825.7,5.01,0.00,29.0,28.1,00.0,38.0,30.7,09.0,0000.0,0008.99,0003.59,0001.49
2022-03-25 02:33:00,,0825.8,4.99,0.00,28.9,28.1,00.0,38.0,30.7,09.1,0000.0,0008.88,0003.57,0001.47
2022-03-25 02:34:00,,0825.7,4.99,0.00,28.9,28.1,00.0,38.0,30.6,09.2,0000.0,0008.92,0003.58,0001.46
2022-03-25 02:35:00,,0825.8,5.00,0.00,28.9,28.1,00.0,38.0,30.7,09.1,0000.0,0009.06,0003.59,0001.46
2022-03-25 02:36:00,,0825.7,5.01,0.00,28.9,28.1,00.0,38.0,30.7,09.0,0000.0,0009.03,0003.60,0001.46
2022-03-25 02:37:00,,0825.7,4.99,0.00,28.9,28.1,00.0,38.0,30.7,09.0,0000.0,0008.96,0003.57,0001.46
2022-03-25 02:38:00,,0825.8,5.00,0.00,28.9,28.1,00.0,38.0,30.7,09.1,0000.0,0009.13,0003.54,0001.45
2022-03-25 02:39:00,,0825.9,5.01,0.00,28.9,28.1,00.0,38.0,30.7,09.1,0000.0,0009.21,0003.58,0001.46
2022-03-25 02:40:00,,0825.9,5.00,0.00,28.9,28.1,00.0,37.9,30.7,09.1,0000.0,0008.96,0003.58,0001.46
2022-03-25 02:41:00,,0825.9,5.00,0.00,28.9,28.1,00.0,37.9,30.7,09.1,0000.0,0008.79,0003.60,0001.46
2022-03-25 02:42:00,,0825.9,4.98,0.00,28.9,28.1,00.0,37.9,30.7,09.1,0000.0,0008.80,0003.62,0001.46
2022-03-25 02:43:00,,0825.9,5.00,0.00,28.9,28.1,00.0,37.9,30.7,09.1,0000.0,0008.77,0003.62,0001.47
2022-03-25 02:44:00,,0825.9,5.01,0.00,28.9,28.1,00.0,37.9,30.7,09.1,0000.0,0008.80,0003.63,0001.46
2022-03-25 02:45:00,,0825.9,5.00,0.00,28.9,28.1,00.0,37.9,30.7,09.1,0000.0,0008.86,0003.61,0001.44
2022-03-25 02:46:00,,0826.0,4.99,0.00,28.9,28.1,00.0,37.9,30.7,09.1,0000.0,0008.75,0003.59,0001.43
2022-03-25 02:47:00,,0826.0,5.02,0.00,28.9,28.1,00.0,37.9,30.7,09.1,0000.0,0008.73,0003.57,0001.43
2022-03-25 02:48:00,,0826.0,4.99,0.00,28.9,28.1,00.0,37.9,30.7,09.1,0000.0,0008.84,0003.56,0001.41
2022-03-25 02:49:00,,0826.0,5.00,0.00,29.0,28.1,00.0,37.9,30.7,09.0,0000.0,0008.42,0003.48,0001.40
2022-03-25 02:50:00,,0826.0,5.01,0.00,28.9,28.1,00.0,37.9,30.7,09.0,0000.0,0008.20,0003.45,0001.39
2022-03-25 02:51:00,,0826.0,4.99,0.00,28.9,28.1,00.0,37.9,30.7,09.0,0000.0,0008.39,0003.53,0001.38
2022-03-25 02:52:00,,0826.0,5.00,0.00,29.0,28.1,00.0,37.9,30.7,09.0,0000.0,0008.27,0003.49,0001.38
2022-03-25 02:53:00,,0826.0,5.02,0.00,29.0,28.1,00.0,37.9,30.7,09.0,0000.0,0008.27,0003.48,0001.38
2022-03-25 02:54:00,,0826.1,4.99,0.00,29.0,28.1,00.0,37.9,30.7,09.1,0000.0,0008.25,0003.47,0001.37
2022-03-25 02:55:00,,0826.1,4.98,0.00,29.0,28.1,00.0,37.9,30.7,09.1,0000.0,0008.16,0003.44,0001.39
2022-03-25 02:56:00,,0826.0,5.00,0.00,29.0,28.1,00.0,37.9,30.7,09.2,0000.0,0007.99,0003.40,0001.39
2022-03-25 02:57:00,,0826.1,5.00,0.00,29.0,28.1,00.0,37.9,30.7,09.1,0000.0,0008.02,0003.42,0001.40
2022-03-25 02:58:00,,0826.1,4.99,0.00,28.9,28.1,00.0,37.9,30.7,09.1,0000.0,0008.08,0003.41,0001.41
2022-03-25 02:59:00,,0826.1,4.99,0.00,28.9,28.0,00.0,37.9,30.6,09.1,0000.0,0008.09,0003.41,0001.43
